ATLAS 5 CENTAUR DEB, 44651

Orbit data source: Space-Track

ATLAS 5 CENTAUR DEB, 44651 is space debris in HEO originally from a launch on Wed, 17 Oct 2018 UTC launched from the Air Force Eastern Test Range (AFETR). Debris objects in space refer to the collection of defunct objects orbiting the Earth. Examples of debris include non-operational satellites, rocket bodies, and fragments generated from explosions, collisions, or faulty payload assembly.

Loading next visibility...
Identifier
44651, 2018-079M
Orbit
HEO
Country
Flag of USUS
Related business
Flag of USUnited Launch Alliance/Lockheed Martin (US)
Manufacturer
ULA Decatur
Mission
Spacecraft
Bus & Motor
Unknown
Mass
Unknown
Launch date (UTC)
2018-10-17 (7 years ago)
Launch vehicle
Unknown
Launch site
Air Force Eastern Test Range (AFETR)
Object type
Payload
Rocket body
Debris
Shape & HBR
Unknown
Radar Cross Section
RCS unknown

Expand to show TLE details & history
Last TLE update: 2 days ago

TLE from 2 days ago
0 ATLAS 5 CENTAUR DEB
1 44651U 18079M   25257.43891513 -.00000191  00000-0  00000-0 0  9992
2 44651  12.9952  56.8799 4661256 274.3599  35.7166  1.83293231 43022
Epoch: 2025-09-14T10:32Z
TLE epoch observation values (Epoch: 2025-09-14T10:32:02.267Z)
Latitude
0.00001°
Longitude
-94.73305°
Altitude
14,919.862 km
Speed
4.827 km/s
True Right ascension
03h 47m 44s
True Declination
0° 00' 00"
Sunlit
Object was in daylight at epoch
Visualization orbit readout
Latitude
Unknown
Longitude
Unknown
Altitude
Unknown
Speed
Unknown
Apparent Right ascension
Unknown
Apparent Declination
Unknown
Sunlit
N/A
Visualization observer readout
Local Sidereal Time
06:35:36
Azimuth
Unknown
Elevation
Unknown
Doppler factor
Unknown
Orbital elements
Apogee altitude
34,974.933 km
Perigee altitude
8,680.154 km
Semi-major axis
28,205.68 km
Eccentricity
0.46613
Inclination
12.9952°
RAAN
56.8799°
Arg. of periapsis
274.3599°
True anomaly
85.70776°
Mean anomaly
35.7166°
Eccentric anomaly
58.48425°
Mean motion
0.45818 °/min
Orbital period
785.71 mins
BSTAR
0
Loading maneuver chart data...
Computing Atmospheric mass density...

Documentation

Showing up to 5 results
|